IW3HBX-3 Weather Reports


time (UTC)temp
F
wind
direction
speed
knots
gust
knots
rain 1hr
in
rain 24hr
in
rain mn
in
humidity
%
barometer
mb
20260906091358 83 56 5.2 6.1 0.00 0.00 0.00 46 1023.3
20260906090858 83 65 2.6 5.2 0.00 0.00 0.00 46 1023.3
20260906090358 82 72 3.5 6.1 0.00 0.00 0.00 48 1023.3
20260906085858 82 61 4.3 7.0 0.00 0.00 0.00 48 1023.3
20260906085358 82 69 4.3 7.8 0.00 0.00 0.00 48 1023.2
20260906084858 82 62 3.5 6.1 0.00 0.00 0.00 49 1023.2
20260906084358 81 63 3.5 4.3 0.00 0.00 0.00 49 1023.3
20260906083858 82 67 4.3 7.0 0.00 0.00 0.00 50 1023.3
20260906083358 82 53 3.5 5.2 0.00 0.00 0.00 49 1023.4
20260906082859 81 61 4.3 7.8 0.00 0.00 0.00 50 1023.2
20260906082359 81 63 4.3 5.2 0.00 0.00 0.00 49 1023.2
20260906081859 82 61 4.3 6.1 0.00 0.00 0.00 50 1023.2
20260906081359 81 73 2.6 4.3 0.00 0.00 0.00 51 1023.2
20260906080859 81 56 4.3 7.8 0.00 0.00 0.00 51 1023.2
20260906080359 81 76 4.3 8.7 0.00 0.00 0.00 52 1023.1
20260906075859 80 61 4.3 6.1 0.00 0.00 0.00 53 1023.1
20260906075359 80 65 3.5 4.3 0.00 0.00 0.00 54 1023.0
20260906074859 80 62 6.1 9.6 0.00 0.00 0.00 54 1023.0
20260906074359 80 62 4.3 7.0 0.00 0.00 0.00 54 1023.0
20260906073859 79 58 4.3 7.0 0.00 0.00 0.00 56 1023.0
20260906073400 79 64 4.3 7.0 0.00 0.00 0.00 57 1023.0
20260906072900 79 59 3.5 7.0 0.00 0.00 0.00 56 1022.9
20260906072400 79 57 5.2 7.8 0.00 0.00 0.00 57 1023.0
20260906071900 78 56 4.3 7.8 0.00 0.00 0.00 57 1022.9
20260906071400 78 63 5.2 7.0 0.00 0.00 0.00 58 1022.9
20260906070900 79 36 3.5 6.1 0.00 0.00 0.00 58 1022.9
20260906070400 78 62 3.5 6.1 0.00 0.00 0.00 59 1022.8
20260906065900 78 52 2.6 6.1 0.00 0.00 0.00 60 1022.7
20260906065400 78 64 3.5 7.8 0.00 0.00 0.00 60 1022.7
20260906064900 78 63 1.7 2.6 0.00 0.00 0.00 61 1022.7
20260906064400 77 63 3.5 7.0 0.00 0.00 0.00 63 1022.7
20260906063901 78 49 0.9 1.7 0.00 0.00 0.00 64 1022.7
20260906063400 78 43 1.7 4.3 0.00 0.00 0.00 65 1022.6
20260906062900 78 46 1.7 2.6 0.00 0.00 0.00 64 1022.6
20260906062401 78 335 0.9 2.6 0.00 0.00 0.00 65 1022.5
20260906061901 78 40 0.9 2.6 0.00 0.00 0.00 65 1022.5
20260906061401 78 65 0.0 0.9 0.00 0.00 0.00 65 1022.4
20260906060901 77 66 0.9 3.5 0.00 0.00 0.00 66 1022.3
20260906060401 77 60 2.6 4.3 0.00 0.00 0.00 67 1022.3
20260906055901 77 65 0.9 2.6 0.00 0.00 0.00 67 1022.2
20260906055401 77 41 1.7 2.6 0.00 0.00 0.00 69 1022.2
20260906054901 76 74 0.9 2.6 0.00 0.00 0.00 69 1022.1
20260906054402 76 78 0.9 2.6 0.00 0.00 0.00 70 1022.0
20260906053902 75 73 0.9 3.5 0.00 0.00 0.00 71 1021.9
20260906053401 75 75 1.7 2.6 0.00 0.00 0.00 71 1021.9
20260906052901 75 60 0.9 1.7 0.00 0.00 0.00 72 1021.8
20260906052402 74 61 0.0 0.9 0.00 0.00 0.00 73 1021.8
20260906051902 74 343 0.9 1.7 0.00 0.00 0.00 73 1021.7
20260906051402 73 59 1.7 2.6 0.00 0.00 0.00 75 1021.6
20260906050902 73 68 1.7 1.7 0.00 0.00 0.00 77 1021.5
20260906050402 73 67 0.9 2.6 0.00 0.00 0.00 77 1021.5
20260906045902 73 75 0.9 1.7 0.00 0.00 0.00 77 1021.4
20260906045402 73 71 0.0 0.9 0.00 0.00 0.00 78 1021.4
20260906044902 73 54 0.9 1.7 0.00 0.00 0.00 78 1021.4
20260906044402 73 63 0.0 0.9 0.00 0.00 0.00 78 1021.3
20260906043902 73 61 0.9 1.7 0.00 0.00 0.00 78 1021.2
20260906043403 73 64 0.9 2.6 0.00 0.00 0.00 78 1021.3
20260906042903 73 46 0.0 0.9 0.00 0.00 0.00 78 1021.2
20260906042403 73 70 0.0 0.9 0.00 0.00 0.00 78 1021.2
20260906041903 73 11 0.9 1.7 0.00 0.00 0.00 77 1021.2
20260906041403 73 355 0.9 2.6 0.00 0.00 0.00 78 1021.1
20260906040903 73 316 0.0 0.9 0.00 0.00 0.00 78 1021.1
20260906040403 73 288 0.0 0.9 0.00 0.00 0.00 78 1021.0
20260906035903 73 286 0.0 0.9 0.00 0.00 0.00 78 1021.1
20260906035403 73 286 0.0 0.0 0.00 0.00 0.00 77 1021.1
20260906034903 73 298 0.0 0.0 0.00 0.00 0.00 77 1020.9
20260906034403 73 323 0.9 0.9 0.00 0.00 0.00 77 1020.9
20260906033903 74 86 0.0 0.9 0.00 0.00 0.00 77 1020.9
20260906033403 74 52 0.0 0.9 0.00 0.00 0.00 76 1020.9
20260906032903 74 46 0.0 0.9 0.00 0.00 0.00 76 1020.8
20260906032403 74 51 0.0 0.0 0.00 0.00 0.00 76 1020.8
20260906031904 74 60 0.0 0.9 0.00 0.00 0.00 76 1020.8
20260906031404 74 60 0.9 0.9 0.00 0.00 0.00 76 1020.9
20260906030904 74 59 0.0 1.7 0.00 0.00 0.00 76 1020.8
20260906030404 74 57 0.9 1.7 0.00 0.00 0.00 75 1020.8
20260906025904 74 49 0.0 0.9 0.00 0.00 0.00 76 1020.9
20260906025404 74 48 0.0 0.0 0.00 0.00 0.00 76 1020.8
20260906024904 74 52 0.9 0.9 0.00 0.00 0.00 76 1020.9
20260906024404 74 49 0.0 0.9 0.00 0.00 0.00 75 1020.9
20260906023904 74 68 0.0 0.0 0.00 0.00 0.00 75 1020.8
20260906023404 75 67 0.0 0.0 0.00 0.00 0.00 75 1020.8
20260906022904 75 68 0.9 1.7 0.00 0.00 0.00 73 1020.8
20260906022404 75 66 0.0 1.7 0.00 0.00 0.00 73 1020.7
20260906021905 75 66 0.0 2.6 0.00 0.00 0.00 73 1020.6
20260906021405 75 58 0.9 1.7 0.00 0.00 0.00 73 1020.7
20260906020905 75 61 0.9 2.6 0.00 0.00 0.00 73 1020.7
20260906020405 75 59 0.9 1.7 0.00 0.00 0.00 73 1020.7
20260906015905 75 17 0.0 1.7 0.00 0.00 0.00 73 1020.6
20260906015405 75 62 0.9 0.9 0.00 0.00 0.00 73 1020.5
20260906014905 75 29 0.9 2.6 0.00 0.00 0.00 73 1020.6
20260906014405 75 56 0.9 1.7 0.00 0.00 0.00 75 1020.4
20260906013905 76 20 0.0 0.9 0.00 0.00 0.00 75 1020.4
20260906013405 76 34 0.0 0.9 0.00 0.00 0.00 75 1020.4
20260906012905 76 63 0.9 0.9 0.00 0.00 0.00 75 1020.4
20260906012405 76 66 0.0 3.5 0.00 0.00 0.00 77 1020.4
20260906011906 76 309 0.0 0.9 0.00 0.00 0.00 77 1020.4
20260906011406 76 60 0.0 0.9 0.00 0.00 0.00 77 1020.4
20260906010906 76 54 0.9 1.7 0.00 0.00 0.00 76 1020.4
20260906010406 76 20 0.9 1.7 0.00 0.00 0.00 76 1020.3
20260906005936 76 55 0.9 0.9 0.00 0.00 0.00 78 1020.4
20260906005906 76 78 0.9 1.7 0.00 0.00 0.00 77 1020.4
20260906005406 76 55 0.9 0.9 0.00 0.00 0.00 78 1020.4
20260906004906 76 43 0.9 0.9 0.00 0.00 0.00 78 1020.5
20260906004406 76 58 1.7 2.6 0.00 0.00 0.00 78 1020.4
20260906003906 76 65 0.9 1.7 0.00 0.00 0.00 80 1020.4
20260906003406 76 68 2.6 4.3 0.00 0.00 0.00 81 1020.5
20260906002906 76 65 2.6 3.5 0.00 0.00 0.00 81 1020.3
20260906002407 76 65 1.7 2.6 0.00 0.00 0.00 82 1020.4
20260906001907 76 64 1.7 3.5 0.00 0.00 0.00 83 1020.4
20260906001407 76 68 0.9 1.7 0.00 0.00 0.00 86 1020.5
20260906000907 76 319 0.9 0.9 0.00 0.00 0.00 85 1020.5
20260906000407 76 29 0.0 0.9 0.00 0.00 0.00 85 1020.5
20260905235907 76 48 0.9 1.7 0.00 0.00 0.00 86 1020.5
20260905235407 76 64 1.7 2.6 0.00 0.00 0.00 86 1020.4
20260905234907 76 274 0.0 1.7 0.00 0.00 0.00 86 1020.4
20260905234407 76 70 0.9 2.6 0.00 0.00 0.00 86 1020.2
20260905233907 76 63 0.9 1.7 0.00 0.00 0.00 86 1020.3
20260905233407 76 46 0.9 0.9 0.00 0.00 0.00 86 1020.3
20260905232908 76 48 0.0 0.0 0.00 0.00 0.00 86 1020.3
20260905232407 77 51 0.0 0.9 0.00 0.00 0.00 86 1020.2
20260905231908 77 304 0.0 0.9 0.00 0.00 0.00 86 1020.2
20260905231408 77 309 0.0 0.9 0.00 0.00 0.00 86 1020.2
20260905230908 77 309 0.0 0.9 0.00 0.00 0.00 86 1020.3
20260905230408 77 40 0.0 1.7 0.00 0.00 0.00 85 1020.3
20260905225908 77 58 0.9 0.9 0.00 0.00 0.00 85 1020.2
20260905225408 77 66 0.0 2.6 0.00 0.00 0.00 86 1020.2
20260905224908 77 62 0.0 1.7 0.00 0.00 0.00 85 1020.1
20260905224408 77 331 0.0 2.6 0.00 0.00 0.00 86 1020.1
20260905223908 77 53 0.9 3.5 0.00 0.00 0.00 86 1020.1
20260905223408 77 55 0.9 1.7 0.00 0.00 0.00 86 1020.1
20260905222908 77 49 0.9 0.9 0.00 0.00 0.00 86 1020.2
20260905222409 77 57 0.9 1.7 0.00 0.00 0.00 88 1020.1
20260905221908 78 59 0.0 0.9 0.00 0.00 0.00 88 1020.1
20260905221409 77 66 0.0 0.0 0.00 0.00 0.00 90 1020.0
20260905220909 77 66 0.0 0.0 0.00 0.00 0.00 90 1019.9
20260905220409 78 66 0.9 0.9 0.00 0.00 0.00 90 1019.8
20260905215909 78 75 0.0 0.0 0.00 0.00 0.00 88 1019.8
20260905215410 78 75 0.0 0.9 0.00 0.00 0.00 88 1019.7
20260905214910 78 79 0.9 0.9 0.00 0.00 0.00 87 1019.6
20260905214410 78 71 0.9 2.6 0.00 0.00 0.00 88 1019.5
20260905213911 78 78 0.9 1.7 0.00 0.00 0.00 88 1019.5
20260905213411 78 37 0.9 2.6 0.00 0.00 0.00 88 1019.4
20260905212912 78 37 0.0 0.9 0.00 0.00 0.00 87 1019.4
20260905212412 78 37 0.0 0.9 0.00 0.00 0.00 87 1019.3
20260905211913 78 37 0.0 0.0 0.00 0.00 0.00 87 1019.3
20260905211417 78 37 0.9 1.7 0.00 0.00 0.00
20260905211413 78 37 0.9 1.7 0.00 0.00 0.00 87 1019.3
20260905210913 79 61 0.0 0.0 0.00 0.00 0.00 85 1019.2
20260905210414 79 61 0.0 0.0 0.00 0.00 0.00 85 1019.2
20260905205914 79 61 0.0 0.0 0.00 0.00 0.00 83 1019.1
20260905205415 79 61 0.0 0.0 0.00 0.00 0.00 85 1019.0
20260905204915 79 61 0.0 0.0 0.00 0.00 0.00 85 1019.1
20260905204537 80 61 0.0 0.0 0.00 0.00 0.00 83 1019.1
20260905204415 80 61 0.0 0.0 0.00 0.00 0.00 83 1019.1
20260905203916 80 61 0.0 0.0 0.00 0.00 0.00 81 1019.1
20260905203416 81 61 0.0 0.0 0.00 0.00 0.00 81 1019.2
20260905202917 81 61 0.0 0.9 0.00 0.00 0.00 80 1019.1
20260905202417 81 59 0.0 0.9 0.00 0.00 0.00 80 1019.1
20260905201918 81 59 0.0 0.9 0.00 0.00 0.00 80 1019.0
20260905201418 81 58 0.9 1.7 0.00 0.00 0.00 78 1019.0
20260905200918 81 58 0.0 0.9 0.00 0.00 0.00 78 1018.9
20260905200418 82 58 0.9 0.9 0.00 0.00 0.00 78 1018.9
20260905195919 82 57 0.0 0.9 0.00 0.00 0.00 78 1018.8
20260905195420 82 58 0.0 0.9 0.00 0.00 0.00 78 1018.8
20260905194920 82 57 1.7 2.6 0.00 0.00 0.00 77 1018.7
20260905194420 82 59 0.9 2.6 0.00 0.00 0.00 77 1018.6
20260905193921 82 59 1.7 2.6 0.00 0.00 0.00 77 1018.5
20260905193421 82 59 0.9 1.7 0.00 0.00 0.00 76 1018.4
20260905192922 83 60 0.9 1.7 0.00 0.00 0.00 76 1018.3
20260905192422 83 59 0.9 0.9 0.00 0.00 0.00 75 1018.3
20260905191922 83 62 0.9 1.7 0.00 0.00 0.00 75 1018.3
20260905191423 83 62 0.9 2.6 0.00 0.00 0.00 75 1018.2
20260905190923 83 60 0.9 1.7 0.00 0.00 0.00 75 1018.2
20260905190423 83 60 1.7 1.7 0.00 0.00 0.00 75 1018.1
20260905185924 83 60 0.9 1.7 0.00 0.00 0.00 75 1018.0
20260905185424 83 60 0.0 1.7 0.00 0.00 0.00 75 1017.9
20260905184925 83 60 0.0 0.9 0.00 0.00 0.00 75 1017.9
20260905184425 84 60 0.9 1.7 0.00 0.00 0.00 75 1017.8
20260905183925 84 60 0.0 1.7 0.00 0.00 0.00 73 1017.7
20260905183426 84 60 0.9 1.7 0.00 0.00 0.00 72 1017.5
20260905182926 84 63 1.7 3.5 0.00 0.00 0.00 73 1017.5
20260905182427 84 64 1.7 2.6 0.00 0.00 0.00 73 1017.4
20260905181928 84 61 1.7 2.6 0.00 0.00 0.00 72 1017.3
20260905181428 84 60 0.9 2.6 0.00 0.00 0.00 73 1017.2
20260905180928 85 71 1.7 3.5 0.00 0.00 0.00 72 1017.3
20260905180429 85 64 1.7 3.5 0.00 0.00 0.00 72 1017.3
20260905175929 85 64 0.9 1.7 0.00 0.00 0.00 71 1017.2
20260905175429 85 66 0.0 1.7 0.00 0.00 0.00 71 1017.1
20260905174929 85 65 0.9 2.6 0.00 0.00 0.00 71 1017.1
20260905174429 86 70 1.7 3.5 0.00 0.00 0.00 70 1017.0
20260905173929 86 65 0.0 1.7 0.00 0.00 0.00 69 1017.0
20260905173429 86 61 0.0 0.9 0.00 0.00 0.00 69 1016.8
20260905172928 86 59 0.9 0.9 0.00 0.00 0.00 69 1016.8
20260905172428 86 60 0.9 1.7 0.00 0.00 0.00 69 1016.8
20260905171928 87 59 0.9 1.7 0.00 0.00 0.00 67 1016.7
20260905171428 87 56 0.0 0.9 0.00 0.00 0.00 67 1016.6
20260905170928 87 42 0.9 2.6 0.00 0.00 0.00 66 1016.6
20260905170428 87 55 1.7 2.6 0.00 0.00 0.00 66 1016.6
20260905165928 87 59 1.7 2.6 0.00 0.00 0.00 66 1016.5
20260905165428 88 56 1.7 2.6 0.00 0.00 0.00 65 1016.5
20260905164928 89 160 0.0 0.9 0.00 0.00 0.00 64 1016.4
20260905164427 88 82 0.9 1.7 0.00 0.00 0.00 64 1016.5
20260905163928 87 96 1.7 2.6 0.00 0.00 0.00 64 1016.4
20260905163427 87 79 1.7 3.5 0.00 0.00 0.00 64 1016.3
20260905162928 87 80 0.9 2.6 0.00 0.00 0.00 61 1016.3
20260905162427 89 195 0.0 0.9 0.00 0.00 0.00 51 1016.3
20260905161927 91 198 0.0 0.9 0.00 0.00 0.00 43 1016.3
20260905161428 91 198 0.0 0.9 0.00 0.00 0.00 43 1016.3
20260905160927 91 198 0.0 0.9 0.00 0.00 0.00 41 1016.2
20260905160427 91 183 0.0 0.0 0.00 0.00 0.00 41 1016.3
20260905155928 90 220 0.0 0.9 0.00 0.00 0.00 43 1016.2
20260905155427 89 240 0.0 0.9 0.00 0.00 0.00 43 1016.3
20260905155132 90 240 0.0 0.9 0.00 0.00 0.00 42 1016.2
20260905154928 90 240 0.0 0.9 0.00 0.00 0.00 42 1016.2
20260905154427 90 270 0.9 1.7 0.00 0.00 0.00 42 1016.2
20260905153927 91 229 0.0 0.9 0.00 0.00 0.00 41 1016.2
20260905153427 93 214 0.0 0.9 0.00 0.00 0.00 42 1016.1
20260905152926 91 207 0.9 2.6 0.00 0.00 0.00 43 1016.2
20260905152426 89 203 0.0 0.0 0.00 0.00 0.00 44 1016.1
20260905151926 90 210 0.9 2.6 0.00 0.00 0.00 43 1016.1
20260905151426 90 253 1.7 2.6 0.00 0.00 0.00 45 1016.0
20260905150926 91 228 0.9 1.7 0.00 0.00 0.00 42 1016.1
20260905150426 92 173 0.0 0.9 0.00 0.00 0.00 42 1016.1
20260905145926 91 196 0.0 0.9 0.00 0.00 0.00 43 1016.1
20260905145426 91 206 0.9 0.9 0.00 0.00 0.00 44 1016.1
20260905144926 91 250 0.9 0.9 0.00 0.00 0.00 44 1016.1
20260905144426 90 235 1.7 3.5 0.00 0.00 0.00 45 1016.0
20260905143925 92 216 1.7 4.3 0.00 0.00 0.00 44 1016.1
20260905143425 92 263 0.0 0.9 0.00 0.00 0.00 45 1016.2
20260905142925 92 238 0.9 2.6 0.00 0.00 0.00 44 1016.1
20260905142425 91 308 0.9 1.7 0.00 0.00 0.00 43 1016.1
20260905141925 90 15 0.0 0.0 0.00 0.00 0.00 45 1016.1
20260905141425 89 15 0.9 2.6 0.00 0.00 0.00 46 1016.2
20260905140925 89 353 0.0 0.0 0.00 0.00 0.00 46 1016.1
20260905140425 88 282 0.0 2.6 0.00 0.00 0.00 48 1016.2
20260905135925 88 228 0.9 0.9 0.00 0.00 0.00 48 1016.3
20260905135425 90 295 1.7 2.6 0.00 0.00 0.00 46 1016.3
20260905134925 90 286 0.0 0.9 0.00 0.00 0.00 46 1016.3
20260905134424 90 262 0.9 1.7 0.00 0.00 0.00 50 1016.3
20260905133925 89 239 0.9 1.7 0.00 0.00 0.00 49 1016.4
20260905133424 89 184 0.9 2.6 0.00 0.00 0.00 48 1016.4
20260905132924 89 176 0.0 0.9 0.00 0.00 0.00 48 1016.5
20260905132424 87 241 1.7 4.3 0.00 0.00 0.00 51 1016.5
20260905131924 90 206 0.9 1.7 0.00 0.00 0.00 50 1016.5
20260905131424 90 158 0.0 0.9 0.00 0.00 0.00 49 1016.5
20260905130924 89 158 0.9 0.9 0.00 0.00 0.00 49 1016.6
20260905130424 88 251 0.9 0.9 0.00 0.00 0.00 49 1016.7
20260905125924 89 299 0.9 2.6 0.00 0.00 0.00 51 1016.7
20260905125424 88 174 0.0 1.7 0.00 0.00 0.00 49 1016.8
20260905124924 87 211 0.0 0.9 0.00 0.00 0.00 51 1016.8
20260905124424 87 224 0.9 0.9 0.00 0.00 0.00 51 1016.8
20260905123924 87 224 0.0 0.9 0.00 0.00 0.00 52 1016.8
20260905123423 86 219 1.7 2.6 0.00 0.00 0.00 53 1016.9
20260905122923 87 185 0.0 0.9 0.00 0.00 0.00 51 1017.0
20260905122423 87 225 0.9 3.5 0.00 0.00 0.00 52 1017.0
20260905121923 86 259 1.7 3.5 0.00 0.00 0.00 54 1017.1
20260905121423 86 286 1.7 3.5 0.00 0.00 0.00 56 1017.3
20260905120923 86 250 0.9 1.7 0.00 0.00 0.00 52 1017.3
20260905120423 86 50 0.9 2.6 0.00 0.00 0.00 56 1017.3
20260905115923 87 153 0.9 1.7 0.00 0.00 0.00 54 1017.3
20260905115423 87 128 0.0 1.7 0.00 0.00 0.00 54 1017.2
20260905114923 87 123 0.9 2.6 0.00 0.00 0.00 53 1017.2
20260905114423 86 264 0.0 1.7 0.00 0.00 0.00 54 1017.2
20260905113923 86 260 0.9 1.7 0.00 0.00 0.00 56 1017.3
20260905113422 87 185 0.9 1.7 0.00 0.00 0.00 54 1017.2
20260905112922 86 235 0.9 1.7 0.00 0.00 0.00 54 1017.3
20260905112422 86 46 0.0 0.9 0.00 0.00 0.00 57 1017.3
20260905111922 85 129 1.7 2.6 0.00 0.00 0.00 58 1017.4
20260905111422 84 80 0.9 1.7 0.00 0.00 0.00 58 1017.3
20260905110922 84 63 0.0 0.0 0.00 0.00 0.00 57 1017.3
20260905110422 84 65 0.9 0.9 0.00 0.00 0.00 60 1017.3
20260905105922 84 55 0.0 0.9 0.00 0.00 0.00 59 1017.4
20260905105422 84 47 0.9 1.7 0.00 0.00 0.00 63 1017.4
20260905104922 84 46 0.9 2.6 0.00 0.00 0.00 64 1017.4
20260905104421 85 323 0.0 0.9 0.00 0.00 0.00 63 1017.4
20260905103921 84 67 0.0 0.9 0.00 0.00 0.00 63 1017.4
20260905103421 84 296 0.9 1.7 0.00 0.00 0.00 64 1017.4
20260905102921 84 305 1.7 2.6 0.00 0.00 0.00 65 1017.7
20260905102421 84 47 0.9 2.6 0.00 0.00 0.00 65 1017.5
20260905101921 84 334 0.9 1.7 0.00 0.00 0.00 65 1017.5
20260905101421 85 348 1.7 2.6 0.00 0.00 0.00 65 1017.5
20260905100921 84 275 0.0 0.0 0.00 0.00 0.00 64 1017.6
20260905100421 84 275 0.0 0.9 0.00 0.00 0.00 66 1017.5
20260905095921 84 292 0.9 1.7 0.00 0.00 0.00 67 1017.5
20260905095421 83 307 0.0 1.7 0.00 0.00 0.00 67 1017.5
20260905094920 82 336 0.0 1.7 0.00 0.00 0.00 70 1017.5
20260905094420 82 319 0.0 0.9 0.00 0.00 0.00 69 1017.6
20260905093920 82 316 1.7 2.6 0.00 0.00 0.00 70 1017.7
20260905093420 82 316 0.9 1.7 0.00 0.00 0.00 69 1017.8
20260905092420 83 353 0.9 2.6 0.00 0.00 0.00 70 1017.5
20260905091420 84 277 0.0 0.9 0.00 0.00 0.00 66 1017.5